S-NET C (43189 NORAD) Tracking and Keplerian Element Data

This shows tracking and keplerian element data for the satellite.

Feedback or suggestion? Click here.




ElementValue
Catalog43189
NameS-NET C
Epoch Orbit26093
Epoch Day325.18468581
Epoch Year2022
RAAN227.7933
Inclination97.6457
Eccentricity0.0011041
Argument of Perigee125.8347
Mean Anonmoly234.3903
Mean Motion14.98561135
Decay Rate1.547E-05
L11 43189U 18014K 22325.18468581 .00001547 00000+0 13385-3 0 9993
L22 43189 97.6457 227.7933 0011041 125.8347 234.3903 14.98561135260932



Live tracking and technical data element details for S-NET C (NORAD 43189). S-NET C can be tracked NOW for your location showing map with azimuth and elevation plus other details from your city location.







IsCatalogInMostPopularTable: catalog: 43189, numindb: 642
Update: records affected: 1



GetName: 43189 S-NET C

Hit Count: updated at: Fri, 02 Dec 2022 12:18:50 GMT